Weather Roundup
Issued by NWS Springfield, MO

Home | Current Version | Previous Version | Text Only | Print | Product List | Glossary On
Versions: 1 2 3 4 5 6 7 8 9 10 11 12 13 14 15 16 17 18 19 20 21 22 23 24 25 26 27 28 29 30 31 32 33 34 35 36 37 38 39 40 41 42 43 44 45 46 47 48 49 50
000
NZUS99 KSGF 201459
HRRSGF

HOURLY WEATHER
NATIONAL WEATHER SERVICE SPRINGFIELD MO
1000 AM CDT SUN APR 20 2014

......SGF CWA......

CITY           SKY/WX    TMP DP  RH WIND       PRES   REMARKS
SPRINGFIELD    SUNNY     68  51  54 S13       30.18S
JOPLIN         MOSUNNY   70  51  51 S13       30.16F
WEST PLAINS    SUNNY     68  43  40 SE8       30.22S
ROLLA          SUNNY     69  47  45 S14       30.17F
OSAGE BEACH    SUNNY     72  48  43 S3        30.18S
BRANSON        MOSUNNY   68  50  52 S7        30.20F

......SURROUNDING SGF CWA......

CITY           SKY/WX    TMP DP  RH WIND       PRES   REMARKS
CHANUTE        MOSUNNY   67  52  58 S13       30.13S
PARSONS        PTSUNNY   67  52  58 S13       30.14S
COFFEYVILLE    PTSUNNY   68  52  56 S14       30.13S
EMPORIA        MOSUNNY   68  52  56 S16G24    30.08S
SILOAM SPRINGS PTSUNNY   70  50  49 S14       30.19S
HARRISON AR    MOSUNNY   70  50  49 S10       30.20F
NEAR YELLVILLE MOSUNNY   64  46  52 E3        30.21S

......KANSAS AND MISSOURI......

CITY           SKY/WX    TMP DP  RH WIND       PRES   REMARKS
KANSAS CTY INT PTSUNNY   69  51  52 SW17G24   30.09S
DOWNTOWN KC    PTSUNNY   72  51  47 SW15      30.09S
COLUMBIA       SUNNY     70  49  47 S12       30.16S
SEDALIA        MOSUNNY   70  52  52 S14       30.15S
ST JOSEPH      MOSUNNY   71  51  49 SW18G28   30.06S
ST LOUIS       PTSUNNY   70  41  34 S8        30.20S
SPIRIT OF STL  MOSUNNY   70  40  33 S10       30.19S
KIRKSVILLE     SUNNY     71  47  42 S10       30.13F
WICHITA        CLOUDY    65  52  62 S16       30.07S
TOPEKA         PTSUNNY   70  52  52 S12G21    30.07S
OLATHE         PTSUNNY   66  51  58 S14       30.10S

......TENNESSEE......

CITY           SKY/WX    TMP DP  RH WIND       PRES   REMARKS
MEMPHIS        MOSUNNY   70  47  43 S8        30.23R
NASHVILLE      MOSUNNY   68  44  42 W6        30.24S

......ARKANSAS.......

CITY           SKY/WX    TMP DP  RH WIND       PRES   REMARKS
FAYETTEVILLE   MOSUNNY   68  53  58 S9        30.19F
FT SMITH       PTSUNNY   68  55  63 NE7       30.17S
LITTLE ROCK    PTSUNNY   69  50  50 CALM      30.21S

......OKLAHOMA.......

CITY           SKY/WX    TMP DP  RH WIND       PRES   REMARKS
TULSA          CLOUDY    68  54  60 S13       30.12F
PONCA CITY     CLOUDY    67  51  56 S9        30.09F
MCALESTER      CLOUDY    68  52  56 SE6       30.15S
OKLAHOMA CITY  CLOUDY    63  55  75 S9        30.10S

......IOWA............

CITY           SKY/WX    TMP DP  RH WIND       PRES   REMARKS
DES MOINES     SUNNY     72  49  44 SW12G20   30.05S
QUAD CITIES    MOSUNNY   70  42  36 SW10      30.12F

......ILLINOIS........

CITY           SKY/WX    TMP DP  RH WIND       PRES   REMARKS
QUINCY         MOSUNNY   70  45  40 S16       30.15F
CHICAGO        PTSUNNY   63  34  33 S10       30.20F




USA.gov is the U.S. government's official web portal to all federal, state and local government web resources and services.